#timestamp,LO_Frequency,Hit,StdDev 
1592665215.8,286046999.3,P
1592665235.6,286046999.3,N
1592665255.4,286047000.6,N
1592665275.3,286047001.2,N
1592665295.1,286046997.8,N
1592665315.9,286046996.9,Y
1592665335.7,286046997.3,P
1592665355.5,286046997.9,N
1592665375.4,286046996.8,P
1592665395.2,286046999.5,N
1592665415.0,286046998.6,N
1592665416.0,286046998.6,N
1592665435.8,286046998.3,N
1592665455.6,286047001.1,N
1592665475.5,286046998.7,N
1592665495.3,286046998.1,N
1592665515.1,286046999.7,N
1592665535.9,286047001.2,N
1592665555.7,286047001.0,N
1592665575.5,286047000.7,N
1592665595.4,286046999.3,N
1592665615.2,286046996.9,N
1592665635.1,286046999.0,N
1592665636.0,286046999.0,N
1592665655.8,286047000.8,N
1592665675.6,286046998.9,N
1592665695.5,286046998.2,N
1592665715.3,286047000.3,N
1592665735.1,286047000.4,N
1592665755.9,286046998.2,N
1592665775.7,286046998.8,N
1592665795.6,286046998.6,N
1592665815.4,286047000.6,N
1592665835.2,286047000.3,N
1592665855.1,286047002.5,N
1592665856.0,286047002.5,N
1592665875.8,286047001.6,N
1592665895.6,286047002.8,N
1592665915.5,286047000.0,N
1592665935.3,286046998.8,N
1592665955.2,286046999.0,N
1592665975.9,286046998.3,N
1592665995.7,286046998.5,N
1592666015.6,286046998.1,N
1592666035.4,286047000.5,N
1592666055.2,286046999.7,N
1592666075.1,286047000.3,N
1592666076.0,286047000.3,N
1592666095.8,286047000.1,N
1592666115.7,286047000.0,N
1592666135.5,286046998.2,N
1592666155.3,286046998.7,N
1592666175.2,286047000.5,N
1592666195.9,286046999.8,N
1592666215.7,286047000.9,N
1592666235.6,286047000.6,N
1592666255.4,286046999.8,N
1592666275.2,286047000.3,N
1592666295.1,286047000.9,N
1592666296.0,286047000.9,N
1592666315.8,286047000.3,N
1592666335.7,286047001.0,N
1592666355.5,286047000.1,N
1592666375.3,286047000.3,N
1592666395.2,286047001.2,N
1592666415.0,286046998.5,N
1592666415.9,286046998.5,N
1592666435.7,286046998.7,N
1592666455.6,286046998.3,N
1592666475.4,286046998.7,N
1592666495.3,286047000.9,N
1592666515.1,286047002.7,N
1592666516.0,286047002.7,N
1592666535.8,286047000.5,N
1592666555.7,286046999.9,N
1592666575.5,286047002.0,N
1592666595.3,286047000.3,N
1592666615.2,286047000.4,N
1592666635.0,286047002.8,N
1592666635.9,286047002.8,N
1592666655.8,286047002.0,N
1592666675.6,286047004.1,Y
1592666695.4,286047002.3,P
1592666715.3,286047001.6,N
1592666735.1,286047000.4,N
1592666755.8,286047001.2,N
1592666775.7,286046999.4,N
1592666795.5,286047000.8,N
1592666815.4,286047000.9,N
1592666835.2,286047000.5,N
1592666855.0,286047002.0,N
1592666855.9,286047002.0,N
1592666875.8,286047001.3,N
1592666895.6,286047003.0,Y
1592666915.5,286047002.5,P
1592666935.3,286047000.6,N
1592666955.1,286047000.9,N
1592666975.9,286047000.5,N
1592666995.7,286047001.2,N
1592667015.5,286047011.9,Y
1592667035.4,286046999.5,P
1592667055.2,286046997.7,N
1592667075.0,286046994.9,P
1592667076.0,286046994.9,N
1592667095.8,286046996.7,N
1592667115.6,286046999.0,N
1592667135.5,286046999.1,N
1592667155.3,286046999.3,N
1592667175.1,286046999.5,N
1592667195.9,286046998.1,N
1592667215.7,286047002.8,N
1592667235.5,286047001.1,N
1592667255.4,286047000.8,N
1592667275.2,286047001.0,N
1592667295.1,286047001.1,N
1592667296.0,286047001.1,N
1592667315.8,286046998.7,N
1592667335.6,286047000.8,N
1592667355.5,286047000.0,N
1592667375.3,286047000.8,N
1592667395.1,286046998.4,N
1592667415.9,286046998.1,N
1592667435.7,286046998.5,N
1592667455.6,286046999.0,N
1592667475.4,286046998.8,N
1592667495.2,286046999.0,N
1592667515.1,286046998.4,N
1592667516.0,286046998.4,N
1592667535.8,286046999.0,N
1592667555.6,286046996.9,N
1592667575.5,286046997.0,N
1592667595.3,286046997.2,N
1592667615.2,286046999.0,N
1592667635.9,286046999.1,N
1592667655.7,286046999.3,N
1592667675.6,286046998.8,N
1592667695.4,286046999.1,N
1592667715.2,286046996.6,N
1592667735.1,286046996.5,N
1592667736.0,286046996.5,N
1592667755.8,286046998.2,N
1592667775.7,286046999.3,N
1592667795.5,286046999.3,N
1592667815.3,286046997.0,N
1592667835.2,286046999.1,N
1592667855.0,286046997.1,N
1592667855.9,286046997.1,N
1592667875.7,286046997.0,N
1592667895.6,286046996.9,N
1592667915.4,286046997.7,N
1592667935.3,286046997.6,N
1592667955.1,286046997.4,N
1592667956.0,286046997.4,N
1592667975.8,286046997.5,N
1592667995.7,286046997.6,N
1592668015.5,286046995.0,Y
1592668035.3,286046999.2,P
1592668055.2,286046998.8,N
1592668075.0,286046998.1,P
1592668075.9,286046998.1,Y
1592668095.8,286046999.8,P
1592668115.6,286046998.5,N
1592668135.4,286046999.0,N
1592668155.3,286046998.5,N
1592668175.1,286046998.3,Y
1592668195.9,286047000.5,P
1592668215.7,286047000.4,N
1592668235.5,286047000.4,N
1592668255.4,286047000.5,N
1592668275.2,286047002.1,Y
1592668295.0,286047001.4,P
1592668295.9,286047001.4,N
1592668315.8,286047004.3,P
1592668335.6,286047002.9,N
1592668355.5,286047006.0,Y
1592668375.3,286047002.6,P
1592668395.1,286047002.1,P
1592668415.9,286047003.8,P
1592668435.7,286047001.8,N
1592668455.5,286047001.6,N
1592668475.4,286047001.6,N
1592668495.2,286047000.4,N
1592668515.1,286046998.5,N
1592668516.0,286046998.5,N
1592668535.8,286047002.7,N
1592668555.6,286047000.4,N
1592668575.5,286047000.3,N
1592668595.3,286047000.9,N
1592668615.1,286047000.3,N
1592668635.9,286047001.9,N
1592668655.7,286047002.8,N
1592668675.5,286047002.7,N
1592668695.4,286047002.7,N
1592668715.2,286047002.1,N
1592668735.1,286047002.1,N
1592668736.0,286047002.1,N
1592668755.8,286047002.1,N
1592668775.6,286047001.5,N
1592668795.5,286046999.8,N
